Weather in Dordrecht

Netherlands     51°47′31″N   4°40′07″E
temp.,
°C
wind,
m/s
gust,
m/s
humid.,
%
clouds,
%
prec.,
mm/h
press.,
hPa
HPBL,
m
18 may, tue
tue1823:00+8w2290100 0.0 100928
02:00+8s3594100 0.3 1010111
05:00+9ssw4995100 1.3 1009306
08:00+10wsw5992100 1.5 1011461
11:00+13wnw677167 0.4 10121263
14:00+15wnw565998 0.8 10131766
17:00+14wnw665773 0.0 10131512
20:00+12wnw35695 0.0 1014284
19 may, wed
wed1923:00+7wsw228499 0.0 101515
02:00+8ssw3893100 0.3 1015209
05:00+7ssw4897100 0.2 1015182
08:00+9sw589288 0.3 1015335
11:00+13wsw6778100 1.1 10151073
14:00+12wsw6776100 2.8 10161045
17:00+13nw457443 0.5 1016721
20:00+12nw4676100 0.6 1017388
20 may, thu
thu2023:00+8wnw349398 0.0 101959
02:00+7wnw33935 0.0 102037
05:00+6w33940 0.0 102130
08:00+10sw34850 0.0 1021197
11:00+14sw5669100 0.0 10211097
14:00+15wsw6861100 0.7 10201708
17:00+15sw5860100 0.0 10181814
20:00+13ssw61267100 0.2 10161567
21 may, fri
fri2123:00+12s81562100 0.0 1013956
02:00+13ssw91565100 0.0 10101131
05:00+12sw8136793 0.0 10071028
08:00+11ssw8147320 0.1 10061231
11:00+14sw10157038 0.6 10051630
14:00+15sw11175737 1.4 10042274
17:00+15sw1118590 0.3 10022208
20:00+13sw1019636 0.3 10011777
22 may, sat
sat2223:00+11sw10196390 0.0 10001456
02:00+11sw111869100 0.1 9991484
05:00+10sw111892100 1.0 9981448
08:00+10wsw91491100 2.6 1000977
11:00+10w61091100 0.9 1003832
14:00+11w6981100 1.1 1006987
17:00+12nw686699 0.2 10081442
20:00+10nw567487 0.4 1010901